Location: Bruch
(44.2051°N, 0.4120°E)
Time: 13:01:01
(UTC+00:00)

Meteor 1-26 Rocket - Pass Details

Date: 29 November 2020
Orbit: 807 x 928 km, 81.3° (Epoch: 25 January)

Event Time Altitude Azimuth Distance (km) Brightness Sun altitude
Exits shadow 04:49:20 16° 350° (N) 2,161 6.1 -24.9°
Maximum altitude 04:54:07 88° 79° (E) 869 4.2 -24.1°
Drops below altitude 10° 04:59:42 10° 170° (S) 2,452 6.8 -23.1°
Sets 05:02:03 0° 171° (S) 3,366 7.6 -22.7°
